Location: B?ogocice
(50.2413°N, 20.2361°E)
Time: 04:27:44
(UTC+00:00)

ALOS - Pass Details

Date: 20 September 2024
Orbit: 670 x 673 km, 98.0° (Epoch: 04 October)

Event Time Altitude Azimuth Distance (km) Brightness Sun altitude
Rises 00:55:58 0° 19° (NNE) 3,031 6.6 -30.3°
Reaches altitude 10° 00:58:19 10° 27° (NNE) 2,111 5.6 -30.1°
Enters shadow 01:02:22 40° 87° (E) 991 3.3 -29.6°
